Regional Weather Roundup
Issued by NWS

Home | Current Version | Previous Version | Graphics & Text | Print | Product List | Glossary On
Versions: 1 2 3 4 5 6 7 8 9 10 11 12 13 14 15 16 17 18 19 20 21 22 23 24 25 26 27 28 29 30 31 32 33 34 35 36 37 38 39 40 41 42 43 44 45 46 47 48 49 50
000
ASUS43 KMKX 070500
RWRWI

WISCONSIN REGIONAL WEATHER ROUNDUP
NATIONAL WEATHER SERVICE MILWAUKEE/SULLIVAN WI
1200 AM CDT TUE JUL 07 2015

NOTE: "FAIR" INDICATES FEW OR NO CLOUDS BELOW 12,000 FEET WITH NO
SIGNIFICANT WEATHER AND/OR OBSTRUCTIONS TO VISIBILITY.

WIZ001-002-006>008-014>016-023>028-070600-
NORTHWEST WISCONSIN

CITY           SKY/WX    TMP DP  RH WIND       PRES   REMARKS
SUPERIOR ARPT  CLOUDY    58  46  64 N7        30.04F
ASHLAND        CLOUDY    56  46  69 N9        30.03R
HAYWARD        PTCLDY    56  48  74 N8        30.03R
SIREN          CLEAR     53  48  83 NW3       30.04S
CUMBERLAND     PTCLDY    55  46  71 N10       30.02R
RICE LAKE      PTCLDY    57  50  76 NW6       30.03R
CHETEK         PTCLDY    60  53  77 N9        30.01R
LADYSMITH      CLEAR     59  56  89 NW10      30.00S FOG
EAU CLAIRE     NOT AVBL
MENOMONIE      PTCLDY    61  53  74 NW9G18    30.00R
NEW RICHMOND   CLOUDY    58  47  67 N13       30.04R
OSCEOLA        CLOUDY    59  48  66 N6        30.06S
$$

WIZ003>005-009-010-017-018-070600-
NORTH CENTRAL WISCONSIN

CITY           SKY/WX    TMP DP  RH WIND       PRES   REMARKS
MANITOWISH WTR CLOUDY    56  56 100 NW7       29.97F FOG
ARBOR VITAE    MOCLDY    57  55  92 N9        29.96S FOG
WOODRUFF       MOCLDY    57  55  92 N9        29.96S FOG
RHINELANDER    CLOUDY    56  54  93 NW5       29.96S FOG
EAGLE RIVER    CLOUDY    55  55 100 N6        29.95F FOG
LAND O LAKES   CLOUDY    57  54  92 N8        29.96F FOG
PHILLIPS       CLOUDY    54  54 100 CALM      29.97F FOG
TOMAHAWK         N/A     53  52  95 NW3       29.97S FOG
MEDFORD        CLEAR     55  54  97 N5        29.96F FOG
MERRILL          N/A     56  55  98 N5        29.96S FOG
$$

WIZ029-030-035-036-043>047-070600-
CENTRAL WISCONSIN

CITY           SKY/WX    TMP DP  RH WIND       PRES   REMARKS
WAUSAU         CLOUDY    59  55  87 N7        29.93S FOG
MOSINEE        PTCLDY    57  55  94 NW9       29.95S FOG
MARSHFIELD     CLEAR     58  54  86 N9        29.95S FOG
STEVENS POINT  CLOUDY    59  56  89 N3        29.93F FOG
WAUPACA        CLOUDY    64  58  82 N9        29.90F HAZE
WAUTOMA        NOT AVBL
WISC RAPIDS    CLOUDY    61  55  81 N7        29.94F HAZE
CAMP DOUGLAS   MOCLDY    59  59 100 NW7       29.94S FOG
$$

WIZ011>013-019>022-031-037>040-048>050-070600-
NORTHEAST WISCONSIN

CITY           SKY/WX    TMP DP  RH WIND       PRES   REMARKS
ANTIGO         CLOUDY    57  55  92 N8        29.93F FOG
SHAWANO        CLOUDY    63  57  81 N7        29.91S HAZE
OCONTO         CLOUDY    58  58 100 N5        29.88S
STURGEON BAY   CLOUDY    61  55  82 N18G25    29.89S
GREEN BAY      CLOUDY    61  56  83 N13       29.89R HAZE
MANITOWOC      NOT AVBL
APPLETON       CLOUDY    61  57  88 N15       29.89S FOG
CLINTONVILLE   CLOUDY    61  55  82 N7        29.90S HAZE
OSHKOSH        CLOUDY    63  57  81 N18G24    29.87R HAZE
$$

WIZ032>034-041-042-053>061-070600-
SOUTHWEST WISCONSIN

CITY           SKY/WX    TMP DP  RH WIND       PRES   REMARKS
LA CROSSE      CLOUDY    61  58  90 N7        29.96S FOG
SPARTA         PTCLDY    58  56  90 NW5       29.96S FOG
VIROQUA        MOCLDY    59  57  93 N7        29.96R
BOSCOBEL       CLOUDY    64  56  75 N5        29.93S HAZE
PRAIRIE DU CHI CLOUDY    64  54  68 N10       29.93F HAZE
PLATTEVILLE    CLOUDY    64  59  86 N13G23    29.91S
$$

WIZ056-057-062-063-064-067-068-070600-
SOUTH CENTRAL WISCONSIN

CITY           SKY/WX    TMP DP  RH WIND       PRES   REMARKS
REEDSBURG      MOCLDY    61  58  88 N12G17    29.91F
BARABOO/DELLS  CLOUDY    62  57  83 N9        29.91S HAZE
LONE ROCK      NOT AVBL
MINERAL POINT  CLOUDY    63  59  88 N16       29.91S
MADISON        CLOUDY    63  59  87 N12       29.88R
MIDDLETON      CLOUDY    64  62  91 N10       29.90R
WATERTOWN      HVY RAIN  67  67 100 NW16G22   29.84R
MONROE         CLOUDY    63  63 100 N8G22     29.87S
JANESVILLE     RAIN      70  68  94 N14G23    29.85R
$$

WIZ051-052-058>065-066-070>072-070600-
SOUTHEAST WISCONSIN

CITY           SKY/WX    TMP DP  RH WIND       PRES   REMARKS
MILWAUKEE      LGT RAIN  73  68  84 SW16G24   29.83R
WAUKESHA       HVY RAIN  70  68  94 SW9G17    29.84R
MILWAUKEE/TIMM HVY RAIN  72  68  88 S13       29.82S
RACINE         LGT RAIN  73  69  87 SW9       29.85S
BURLINGTON     CLOUDY    69  68  94 S6        29.85S
KENOSHA        CLOUDY    73  69  87 SW10      29.85F
FOND DU LAC    LGT RAIN  62  60  93 N14       29.87R FOG
SHEBOYGAN      RAIN      63  60  90 N15G25    29.84R
WEST BEND      RAIN      72  66  83 NW13      29.82S
JUNEAU         HVY RAIN  63  61  95 N16       29.86R
$$

LSZ147-162-070600-
LAKE SUPERIOR

STATION/POSITION TIME  TEMP    WIND        PRES    WAVE
                       AIR SEA DIR/SP/G            HT/PER
                 (UTC) (F)     (DEG/KT/KT) (MB)    (FT/S)
W MID LAKE BUOY  0350   47 39  320/ 10/ 12 1015.7R   0
DEVILS ISLAND    0400   58     340/ 15/ 19 1016.6R
PORT WING        0400   59     350/  9/ 13 1017.6R
SAXON HARBOR     0400   61     360/ 17/ 23 1015.2R
$$

LMZ867-665-643>646-070600-
LAKE MICHIGAN

STATION/POSITION TIME  TEMP    WIND        PRES    WAVE
                       AIR SEA DIR/SP/G            HT/PER
                 (UTC) (F)     (DEG/KT/KT) (MB)    (FT/S)
CHAMBERS ISLAND  0400   60     320/ 11/ 16 1011.9R
N MID LAKE BUOY  0350   56 57  330/ 14/ 17 1010.0R   3/ 6
NORTHPORT PIER   0400   60     340/ 17/ 23 1011.2R
SISTER BAY       0444   58     360/ 20/ 25   N/A
ALGOMA LAKESHORE 0411          360/ 11/ 17   N/A
KEWAUNEE LAKESHO 0400   61     350/  9/ 17 1010.1R
SHEBOYGAN LAKESH 0400   67     180/  8/  9 1009.4R
PORT WASHINGTON  0400   67      CALM  /  1 1009.8S
ATWATER BUOY     0400   68 59  180/  6/  6 1010.9F
MILWAUKEE LAKESH 0400   74     230/ 11/ 13   N/A
KENOSHA   LAKESH 0400   74     210/ 15/ 26 1010.8R
$$

TC  - TEMPERATURE IN CELSIUS
VSB - VISIBILITY IN STATUTE MILES
WCI - WIND CHILL INDEX
HX  - HEAT INDEX



USA.gov is the U.S. government's official web portal to all federal, state and local government web resources and services.